CW5398 Weather Reports


Display with metric or nautical units.
time (UTC)temp
F
wind
direction
speed
MPH
gust
MPH
rain 1hr
in
rain 24hr
in
rain mn
in
humidity
%
barometer
mb
20260906075516 51 218 0.0 0.0 0.00 0.00 0.00 91 1016.6
20260906074517 51 218 0.0 0.0 0.00 0.00 0.00 90 1016.6
20260906073517 51 218 0.0 0.0 0.00 0.00 0.00 90 1016.7
20260906072516 51 218 0.0 0.0 0.00 0.00 0.00 90 1016.7
20260906071516 52 218 0.0 0.0 0.00 0.00 0.00 90 1016.7
20260906070516 52 218 0.0 0.0 0.00 0.00 0.00 90 1016.7
20260906065516 52 218 0.0 0.0 0.00 0.00 0.00 89 1016.6
20260906064516 52 218 0.0 0.0 0.00 0.00 0.00 89 1016.6
20260906063516 52 218 0.0 0.0 0.00 0.00 0.00 88 1016.6
20260906062516 53 218 0.0 0.0 0.00 0.00 0.00 88 1016.6
20260906061516 53 218 0.0 0.0 0.00 0.00 0.00 88 1016.6
20260906060516 53 218 0.0 0.0 0.00 0.00 0.00 87 1016.6
20260906055536 53 218 0.0 0.0 0.00 0.00 0.00 88 1016.6
20260906054516 53 218 0.0 0.0 0.00 0.00 0.00 87 1016.6
20260906053516 54 218 0.0 0.0 0.00 0.00 0.00 87 1016.7
20260906052536 54 218 0.0 0.0 0.00 0.00 0.00 87 1016.7
20260906051532 54 218 0.0 0.0 0.00 0.00 0.00 86 1016.7
20260906050521 54 218 0.0 0.0 0.00 0.00 0.00 86 1016.5
20260906045516 54 218 0.0 0.0 0.00 0.00 0.00 86 1016.6
20260906044536 55 218 0.0 0.0 0.00 0.00 0.00 85 1016.6
20260906043516 55 218 0.0 0.0 0.00 0.00 0.00 85 1016.5
20260906042516 55 218 0.0 0.0 0.00 0.00 0.00 84 1016.9
20260906041536 55 218 0.0 0.0 0.00 0.00 0.00 84 1016.9
20260906040516 56 218 0.0 0.0 0.00 0.00 0.00 83 1016.9
20260906035516 56 225 0.0 2.0 0.00 0.00 0.00 83 1017.0
20260906034515 56 218 0.0 0.0 0.00 0.00 0.00 82 1017.0
20260906033516 57 218 0.0 0.0 0.00 0.00 0.00 81 1017.0
20260906032516 57 218 0.0 0.0 0.00 0.00 0.00 80 1017.0
20260906031535 58 218 0.0 0.0 0.00 0.00 0.00 79 1017.0
20260906030515 58 218 0.0 0.0 0.00 0.00 0.00 78 1017.0
20260906025515 59 218 0.0 0.0 0.00 0.00 0.00 76 1017.0
20260906024515 60 218 0.0 0.0 0.00 0.00 0.00 74 1017.0
20260906023516 60 218 0.0 0.0 0.00 0.00 0.00 73 1016.9
20260906022515 61 218 0.0 0.0 0.00 0.00 0.00 71 1016.7
20260906021515 61 218 0.0 0.0 0.00 0.00 0.00 70 1016.7
20260906020515 61 218 0.0 0.0 0.00 0.00 0.00 70 1016.7
20260906015516 62 218 0.0 0.0 0.00 0.00 0.00 70 1016.6
20260906014535 62 218 0.0 0.0 0.00 0.00 0.00 69 1016.6
20260906013515 63 225 0.0 1.0 0.00 0.00 0.00 67 1016.6
20260906012515 63 225 1.0 4.0 0.00 0.00 0.00 65 1016.6
20260906011515 64 225 1.0 3.0 0.00 0.00 0.00 64 1016.6
20260906010515 64 225 1.0 3.0 0.00 0.00 0.00 65 1016.5
20260906005515 66 225 0.0 3.0 0.00 0.00 0.00 63 1016.3
20260906004517 67 225 1.0 5.0 0.00 0.00 0.00 61 1016.3
20260906003517 68 225 0.0 4.0 0.00 0.00 0.00 58 1016.1
20260906002517 69 225 0.0 2.0 0.00 0.00 0.00 55 1016.0
20260906001517 69 225 1.0 5.0 0.00 0.00 0.00 57 1016.0
20260906000517 68 225 0.0 1.0 0.00 0.00 0.00 57 1016.0
20260905235517 69 225 1.0 4.0 0.00 0.00 0.00 56 1016.0
20260905234517 68 225 0.0 1.0 0.00 0.00 0.00 57 1016.0
20260905233517 68 225 0.0 3.0 0.00 0.00 0.00 58 1016.0
20260905232517 68 225 0.0 4.0 0.00 0.00 0.00 57 1016.0
20260905231517 68 225 2.0 5.0 0.00 0.00 0.00 58 1016.0
20260905230517 69 225 0.0 3.0 0.00 0.00 0.00 57 1016.0
20260905225517 69 225 0.0 3.0 0.00 0.00 0.00 58 1016.2
20260905224517 69 225 1.0 6.0 0.00 0.00 0.00 57 1016.1
20260905223517 69 248 1.0 5.0 0.00 0.00 0.00 58 1016.4
20260905222517 69 225 1.0 4.0 0.00 0.00 0.00 58 1016.5
20260905221537 69 225 2.0 6.0 0.00 0.00 0.00 58 1016.5
20260905220517 69 225 1.0 5.0 0.00 0.00 0.00 58 1016.5
20260905215517 68 225 1.0 5.0 0.00 0.00 0.00 61 1016.7
20260905214522 68 225 3.0 6.0 0.00 0.00 0.00 61 1016.7
20260905213516 68 180 3.0 10.0 0.00 0.00 0.00 64 1016.9
20260905212537 68 203 1.0 5.0 0.00 0.00 0.00 65 1016.9
20260905211516 68 180 4.0 10.0 0.00 0.00 0.00 64 1016.9
20260905210537 68 203 4.0 7.0 0.00 0.00 0.00 64 1016.9
20260905205516 68 180 4.0 9.0 0.00 0.00 0.00 64 1017.0
20260905204517 68 158 3.0 9.0 0.00 0.00 0.00 62 1017.0
20260905203516 68 225 2.0 8.0 0.00 0.00 0.00 61 1017.0
20260905202516 67 248 2.0 8.0 0.00 0.00 0.00 63 1016.9
20260905201517 66 203 1.0 4.0 0.00 0.00 0.00 65 1016.9
20260905200517 66 203 1.0 5.0 0.00 0.00 0.00 65 1017.0
20260905195536 66 203 1.0 6.0 0.00 0.00 0.00 65 1017.1
20260905194517 66 203 2.0 7.0 0.00 0.00 0.00 65 1017.1
20260905193516 66 225 1.0 7.0 0.00 0.00 0.00 66 1017.1
20260905192516 66 225 3.0 7.0 0.00 0.00 0.00 64 1017.2
20260905191537 66 270 0.0 4.0 0.00 0.00 0.00 66 1017.2
20260905190517 65 270 2.0 5.0 0.00 0.00 0.00 67 1017.3
20260905185537 65 270 2.0 6.0 0.00 0.00 0.00 68 1017.3
20260905184516 64 293 1.0 6.0 0.00 0.00 0.00 70 1017.3
20260905183516 64 293 0.0 3.0 0.00 0.00 0.00 70 1017.4
20260905182516 64 293 1.0 5.0 0.00 0.00 0.00 70 1017.6
20260905181516 63 293 0.0 3.0 0.00 0.00 0.00 70 1017.6
20260905180516 63 315 1.0 6.0 0.00 0.00 0.00 71 1017.6
20260905175516 62 315 1.0 4.0 0.00 0.00 0.00 72 1017.6
20260905174517 62 315 1.0 4.0 0.00 0.00 0.00 73 1017.6
20260905173516 62 315 0.0 1.0 0.00 0.00 0.00 74 1017.6
20260905172516 62 315 1.0 4.0 0.00 0.00 0.00 74 1017.6
20260905171516 62 315 1.0 4.0 0.00 0.00 0.00 78 1017.6
20260905170516 60 315 0.0 4.0 0.00 0.00 0.00 81 1017.6
20260905165516 59 315 0.0 2.0 0.00 0.00 0.00 84 1017.6
20260905164516 58 315 0.0 2.0 0.00 0.00 0.00 87 1017.5
20260905163516 56 304 0.0 0.0 0.00 0.00 0.00 91 1017.4
20260905162516 55 304 0.0 0.0 0.00 0.00 0.00 93 1017.4
20260905161516 54 315 0.0 1.0 0.00 0.00 0.00 95 1017.4
20260905160536 53 304 0.0 1.0 0.00 0.00 0.00 95 1017.4
20260905155516 53 304 0.0 0.0 0.00 0.00 0.00 96 1017.5
20260905154516 52 304 0.0 0.0 0.00 0.00 0.00 96 1017.5
20260905153516 52 304 0.0 0.0 0.00 0.00 0.00 96 1017.5
20260905152516 51 304 0.0 0.0 0.00 0.00 0.00 95 1017.5
20260905151516 51 304 0.0 0.0 0.00 0.00 0.00 95 1017.5
20260905150516 51 304 0.0 0.0 0.00 0.01 0.00 95 1017.5
20260905145516 51 304 0.0 0.0 0.00 0.01 0.00 95 1017.3
20260905144516 51 304 0.0 0.0 0.00 0.01 0.00 95 1017.2
20260905143516 50 304 0.0 0.0 0.00 0.01 0.00 95 1017.0
20260905142516 50 304 0.0 0.0 0.00 0.01 0.00 95 1017.0
20260905141516 50 304 0.0 0.0 0.00 0.01 0.00 95 1017.0
20260905140516 50 304 0.0 0.0 0.00 0.01 0.00 95 1017.0
20260905135516 50 304 0.0 0.0 0.00 0.01 0.00 95 1017.0
20260905134515 50 304 0.0 0.0 0.00 0.01 0.00 95 1017.0
20260905133516 50 304 0.0 0.0 0.00 0.01 0.00 95 1017.0
20260905132515 49 304 0.0 0.0 0.00 0.01 0.00 95 1017.0
20260905131556 49 304 0.0 0.0 0.00 0.01 0.00 95 1017.0
20260905130516 49 304 0.0 0.0 0.00 0.01 0.00 95 1016.9
20260905125516 49 304 0.0 0.0 0.00 0.01 0.00 95 1016.8
20260905124516 49 304 0.0 0.0 0.00 0.01 0.00 95 1016.8
20260905123515 49 304 0.0 0.0 0.00 0.01 0.00 95 1016.6
20260905122555 49 304 0.0 0.0 0.00 0.01 0.00 94 1016.5
20260905121516 49 304 0.0 0.0 0.00 0.01 0.00 94 1016.5
20260905120535 49 304 0.0 0.0 0.00 0.01 0.00 94 1016.5
20260905115516 49 304 0.0 0.0 0.00 0.01 0.00 94 1016.5
20260905114535 49 304 0.0 0.0 0.00 0.01 0.00 94 1016.5
20260905113536 49 304 0.0 0.0 0.00 0.01 0.00 93 1016.5
20260905112515 49 304 0.0 0.0 0.00 0.01 0.00 93 1016.5
20260905111515 49 304 0.0 0.0 0.00 0.01 0.00 93 1016.5
20260905110516 49 304 0.0 0.0 0.00 0.01 0.00 93 1016.5
20260905105515 49 304 0.0 0.0 0.00 0.01 0.00 93 1016.5
20260905104515 49 304 0.0 0.0 0.00 0.01 0.00 92 1016.5
20260905103515 49 304 0.0 0.0 0.00 0.01 0.00 92 1016.5
20260905102515 49 304 0.0 0.0 0.00 0.01 0.00 92 1016.5
20260905101555 50 304 0.0 0.0 0.00 0.01 0.00 92 1016.5
20260905100535 50 304 0.0 0.0 0.00 0.01 0.00 92 1016.5
20260905095517 50 304 0.0 0.0 0.00 0.01 0.00 92 1016.5
20260905094517 50 304 0.0 0.0 0.00 0.01 0.00 91 1016.5
20260905093537 50 304 0.0 0.0 0.00 0.01 0.00 91 1016.6
20260905092558 51 304 0.0 0.0 0.00 0.01 0.00 90 1016.4
20260905091517 51 304 0.0 0.0 0.00 0.01 0.00 90 1016.4
20260905090517 51 304 0.0 0.0 0.00 0.01 0.00 90 1016.4
20260905085537 52 304 0.0 0.0 0.00 0.01 0.00 90 1016.3
20260905084517 52 304 0.0 0.0 0.00 0.01 0.00 90 1016.3
20260905082517 52 304 0.0 0.0 0.00 0.01 0.00 89 1016.2
20260905081517 52 304 0.0 0.0 0.00 0.01 0.00 89 1016.2
20260905080517 52 304 0.0 0.0 0.00 0.01 0.00 89 1016.2